[[{"header":{"parameterUnit":"m.s-1","parameterCategory":1,"la1":30.2991,"la2":30.254,"lo1":-89.0895,"lo2":-89.0444,"dy":0.0017,"dx":0.0017,"nx":28,"ny":28,"refTime":"2025-05-16T03:00:00:Z","depth":0,"parameterNumber":2,"parameterNumberName":"U-component_of_WINDS"},"data":[0,0,0,0,0,0,0,0,0,0,0,0,0,0,0,0,0,0,0,0,0,0,0,0,0,0,0,0,0,0,0,0,0,0,0,0,0,0,0,0,0,0,0,0,0,0,0,0,0,0,0,0,0,0,0,0,0,0,1.8002,1.8003,0,1.8127,1.8129,1.813,1.8166,1.8166,1.8165,1.8164,1.8293,1.8297,1.8301,0,0,0,0,0,0,0,0,0,0,0,0,0,1.7793,1.7797,1.8002,1.8003,1.8005,1.8127,1.8129,1.8131,1.8166,1.8166,1.8165,1.8164,1.8292,1.8297,1.8301,0,0,0,0,0,0,0,0,0,0,0,0,0,1.7898,1.7798,1.8001,1.8037,1.8042,1.8127,1.8129,1.8131,1.8167,1.8166,1.8165,1.8164,1.829,1.8296,1.8302,1.836,0,0,1.8321,1.8323,0,0,0,0,0,0,0,0,1.7892,1.7905,1.8031,1.8035,1.804,1.813,1.8102,1.8208,1.8167,1.8119,1.8164,1.8163,1.824,1.825,1.8276,1.8366,1.8372,1.8321,1.8325,1.8328,1.8329,0,0,0,0,0,0,0,1.7884,1.79,1.8051,1.8032,1.8038,1.8047,1.8061,1.8123,1.8184,1.8123,1.8126,1.8141,1.8242,1.827,1.8279,1.8373,1.8321,1.8326,1.833,1.8333,1.8517,1.8519,0,0,0,0,0,0,1.7871,1.7894,1.8047,1.8055,1.7962,1.8052,1.8067,1.8102,1.8183,1.8194,1.8141,1.8142,1.826,1.8272,1.8284,1.8356,1.8328,1.8333,1.8337,1.8516,1.8518,1.8519,0,0,0,0,0,0,1.7866,1.7884,1.8042,1.7975,1.7996,1.8057,1.8096,1.8105,1.8133,1.8197,1.8208,1.8158,1.8259,1.8275,1.8341,1.8361,1.8336,1.8342,1.8515,1.8517,1.8518,1.8502,0,0,0,0,0,0,1.786,1.7882,1.7905,1.7976,1.8,1.8097,1.8097,1.8109,1.8143,1.8145,1.8216,1.8226,1.826,1.8331,1.8347,1.8369,1.8346,1.8513,1.8516,1.8518,1.8501,1.8503,1.8505,0,0,0,0,0,1.7852,1.7895,1.7906,1.7924,1.8029,1.8098,1.8112,1.815,1.8145,1.8168,1.8209,1.8224,1.8357,1.8338,1.8355,1.838,1.8512,1.8515,1.8518,1.85,1.8503,1.8505,0,0,0,0,0,0,1.7825,1.7905,1.7918,1.7985,1.8034,1.8104,1.8134,1.8151,1.8204,1.8203,1.8248,1.8263,1.8326,1.836,1.8337,1.844,1.8435,1.8441,1.8416,1.8419,1.8421,1.8411,1.8351,0,0,0,0,0,1.7827,1.7877,1.7944,1.7997,1.8021,1.8073,1.8105,1.813,1.8183,1.8204,1.825,1.8301,1.8355,1.8389,1.8441,1.8507,1.8522,1.8532,1.8534,1.8536,1.854,1.8577,1.8582,1.8528,1.8528,1.8528,0,0,1.7832,1.7881,1.791,1.7993,1.8034,1.8084,1.8091,1.8144,1.8181,1.8212,1.8277,1.8312,1.8373,1.8438,1.8469,1.8468,1.8559,1.8539,1.854,1.8544,1.8581,1.8586,1.859,1.853,1.853,1.853,0,0,1.7865,1.7908,1.7956,1.7998,1.806,1.8095,1.8107,1.8174,1.8199,1.8264,1.8288,1.8334,1.8425,1.8467,1.85,1.8549,1.8565,1.8565,1.8575,1.861,1.8615,1.8619,1.8636,1.8641,1.857,1.857,1.857,0,1.7862,1.7939,1.7979,1.8031,1.8066,1.8097,1.8146,1.8184,1.8261,1.8285,1.8283,1.8397,1.844,1.8515,1.8527,1.8553,1.8568,1.8557,1.8611,1.8615,1.862,1.8636,1.8643,1.8569,1.8569,1.8569,1.8569,0,1.7932,1.7985,1.8017,1.809,1.8129,1.8179,1.8227,1.8262,1.8284,1.8318,1.8385,1.8437,1.85,1.852,1.8542,1.8599,1.8596,1.8602,1.8597,1.8624,1.864,1.8647,1.8569,1.8569,1.8569,1.8569,0,0,1.7951,1.8046,1.8057,1.8091,1.8162,1.8204,1.8256,1.8318,1.8347,1.8399,1.8443,1.8519,1.8525,1.8562,1.8589,1.862,1.8655,1.8622,1.8624,1.8626,1.8721,1.8715,1.8722,1.8666,1.8668,1.8669,1.8715,0,1.7993,1.8087,1.8124,1.82,1.8249,1.8279,1.8324,1.8373,1.8407,1.8454,1.8491,1.8544,1.8548,1.8571,1.8603,1.8644,1.8675,1.8641,1.8707,1.8709,1.869,1.8731,1.8726,1.8767,1.8722,1.8723,1.8724,0,1.8054,1.8107,1.8187,1.8253,1.8275,1.8315,1.8375,1.8419,1.8475,1.8498,1.8539,1.8564,1.862,1.8612,1.8688,1.8665,1.8694,1.8718,1.8721,1.8728,1.8717,1.8738,1.8781,1.8787,1.8735,1.8734,1.8733,0,1.8059,1.815,1.821,1.8238,1.8316,1.8343,1.8377,1.8432,1.8467,1.852,1.8543,1.8601,1.8632,1.8677,1.8717,1.8708,1.8789,1.8785,1.8809,1.8808,1.8825,1.8823,1.8872,1.8845,1.8844,1.8844,1.8844,0,1.8101,1.8149,1.8213,1.825,1.8305,1.8348,1.8401,1.8436,1.8485,1.8529,1.8559,1.86,1.865,1.8698,1.8729,1.8787,1.8802,1.8821,1.8829,1.8818,1.8816,1.8838,1.8835,1.8846,1.8846,1.8845,1.8845,0,1.8116,1.8161,1.8228,1.8297,1.8315,1.8352,1.8411,1.8448,1.8483,1.8539,1.8554,1.861,1.8667,1.8712,1.8786,1.8807,1.8868,1.8877,1.8849,1.8853,1.8875,1.8872,1.8939,1.895,1.8916,1.8916,1.8916,0,1.8139,1.8177,1.825,1.8282,1.8315,1.8366,1.8402,1.8446,1.8482,1.8549,1.8577,1.8637,1.8686,1.8776,1.8823,1.888,1.889,1.891,1.8899,1.8887,1.889,1.8887,1.889,1.8911,1.8911,1.8911,1.8911,0,1.8176,1.8197,1.8247,1.8306,1.8348,1.8396,1.8445,1.8469,1.8522,1.8561,1.862,1.8659,1.8735,1.8793,1.8855,1.8889,1.8909,1.8914,1.8923,1.8912,1.8894,1.8903,1.8852,1.8912,1.8912,1.8912,1.8912,1.8912,1.8196,1.823,1.8287,1.8343,1.8384,1.8429,1.8467,1.8508,1.8557,1.8623,1.8646,1.8706,1.8761,1.8846,1.8882,1.8929,1.893,1.8943,1.8946,1.8948,1.8946,1.8887,1.8941,1.8941,1.8941,1.8941,1.8941,0,1.8234,1.8272,1.8323,1.839,1.8434,1.8449,1.8504,1.8539,1.8592,1.8642,1.869,1.8757,1.8814,1.8866,1.8925,1.8953,1.8963,1.8967,1.8965,1.8973,1.8943,1.8929,1.8958,1.8957,1.8957,1.8957,1.8957,1.8957,1.8258,1.8318,1.8345,1.8426,1.8464,1.8523,1.8553,1.8595,1.8635,1.8709,1.8756,1.8789,1.884,1.8903,1.8955,1.8969,1.8989,1.899,1.9006,1.8977,1.8975,1.8973,1.896,1.8995,1.8995,1.9032,1.9033,1.9033]},{"header":{"parameterUnit":"m.s-1","parameterCategory":1,"la1":30.2991,"la2":30.254,"lo1":-89.0895,"lo2":-89.0444,"dy":0.0017,"dx":0.0017,"nx":28,"ny":28,"refTime":"2025-05-16T03:00:00:Z","depth":0,"parameterNumber":3,"parameterNumberName":"V-component_of_WINDS"},"data":[0,0,0,0,0,0,0,0,0,0,0,0,0,0,0,0,0,0,0,0,0,0,0,0,0,0,0,0,0,0,0,0,0,0,0,0,0,0,0,0,0,0,0,0,0,0,0,0,0,0,0,0,0,0,0,0,0,0,4.1247,4.1248,0,4.1298,4.1298,4.1299,4.1299,4.1298,4.1298,4.1297,4.1343,4.1345,4.1346,0,0,0,0,0,0,0,0,0,0,0,0,0,4.1145,4.1147,4.1247,4.1248,4.1248,4.1298,4.1298,4.1299,4.1299,4.1298,4.1298,4.1297,4.1342,4.1344,4.1347,0,0,0,0,0,0,0,0,0,0,0,0,0,4.1191,4.1147,4.1247,4.1255,4.1256,4.1298,4.1299,4.1299,4.1299,4.1298,4.1297,4.1297,4.1342,4.1344,4.1347,4.1383,0,0,4.1355,4.1356,0,0,0,0,0,0,0,0,4.1189,4.1195,4.1253,4.1254,4.1256,4.1291,4.1279,4.1327,4.13,4.1283,4.1297,4.1296,4.1326,4.133,4.1341,4.1385,4.1387,4.1355,4.1357,4.1358,4.1359,0,0,0,0,0,0,0,4.1186,4.1193,4.1267,4.1254,4.1255,4.1254,4.1259,4.1288,4.1309,4.1284,4.1284,4.1291,4.1327,4.1339,4.1342,4.1387,4.1355,4.1358,4.1359,4.136,4.1464,4.1465,0,0,0,0,0,0,4.1182,4.119,4.1265,4.1268,4.1219,4.1256,4.1262,4.1281,4.1309,4.1312,4.1291,4.129,4.1335,4.1339,4.1344,4.1389,4.1358,4.1361,4.1362,4.1463,4.1464,4.1465,0,0,0,0,0,0,4.1179,4.1188,4.1263,4.123,4.1239,4.1259,4.1279,4.1282,4.1295,4.1314,4.1317,4.13,4.1334,4.134,4.1374,4.139,4.1362,4.1364,4.1461,4.1463,4.1465,4.1478,0,0,0,0,0,0,4.1177,4.1188,4.1203,4.123,4.1241,4.1294,4.128,4.1284,4.13,4.1299,4.1324,4.1327,4.1334,4.137,4.1377,4.1394,4.1367,4.146,4.1462,4.1464,4.1476,4.148,4.1483,0,0,0,0,0,4.1173,4.1203,4.1203,4.1212,4.126,4.1295,4.1301,4.131,4.1301,4.1316,4.1329,4.1326,4.1388,4.1373,4.1381,4.1399,4.1459,4.1461,4.1464,4.1475,4.1479,4.1483,0,0,0,0,0,0,4.1174,4.1206,4.1207,4.1247,4.1269,4.1295,4.1313,4.1315,4.1337,4.1335,4.1344,4.135,4.1383,4.1394,4.1378,4.1436,4.1422,4.1426,4.1427,4.1432,4.1435,4.1432,4.1369,0,0,0,0,0,4.1179,4.1206,4.1232,4.1265,4.1276,4.1293,4.1308,4.1314,4.1336,4.1344,4.1359,4.1378,4.1402,4.1417,4.144,4.1478,4.1483,4.1494,4.1497,4.15,4.1504,4.1525,4.153,4.1473,4.1473,4.1473,0,0,4.1189,4.121,4.1227,4.1266,4.1283,4.131,4.13,4.1328,4.1348,4.1347,4.1381,4.1393,4.1415,4.1451,4.1467,4.1461,4.1521,4.1503,4.1505,4.1507,4.1528,4.1533,4.1538,4.1475,4.1475,4.1475,0,0,4.1222,4.1241,4.1271,4.1289,4.1317,4.1328,4.1335,4.1362,4.137,4.1405,4.1405,4.1427,4.1468,4.1484,4.1498,4.1538,4.1537,4.1545,4.1563,4.1584,4.1589,4.1593,4.1608,4.1613,4.1549,4.1549,4.1549,0,4.1231,4.1273,4.1285,4.1315,4.1332,4.1336,4.1365,4.1381,4.1414,4.1425,4.1417,4.147,4.1485,4.1525,4.1535,4.1546,4.1554,4.1543,4.1587,4.1592,4.1595,4.161,4.1615,4.155,4.155,4.1549,4.1549,0,4.1283,4.1312,4.1333,4.1367,4.1386,4.1416,4.1431,4.1449,4.1453,4.1465,4.15,4.1518,4.1545,4.1555,4.1558,4.1596,4.1592,4.1586,4.1572,4.1602,4.1615,4.1621,4.1551,4.1551,4.155,4.155,0,0,4.1316,4.1359,4.1367,4.1383,4.1414,4.1436,4.1465,4.1494,4.151,4.1532,4.1556,4.1591,4.1587,4.1602,4.1607,4.1625,4.1657,4.1617,4.1618,4.1625,4.1701,4.1705,4.1711,4.1656,4.1658,4.1658,4.1699,0,4.1353,4.1408,4.1421,4.1467,4.1494,4.1498,4.1524,4.1545,4.1557,4.158,4.1592,4.1617,4.1609,4.1619,4.1637,4.165,4.1673,4.1647,4.1678,4.1679,4.1673,4.1718,4.1723,4.176,4.1704,4.1705,4.1706,0,4.1403,4.143,4.148,4.1509,4.1521,4.1544,4.1572,4.1595,4.1618,4.1626,4.1644,4.1648,4.1677,4.1662,4.1702,4.1684,4.1698,4.1706,4.1708,4.1711,4.1694,4.1723,4.1772,4.1778,4.1714,4.1714,4.1713,0,4.1423,4.1471,4.1508,4.1522,4.1556,4.1573,4.1587,4.161,4.1628,4.1652,4.1663,4.1689,4.1703,4.1723,4.1733,4.1721,4.1772,4.1758,4.1778,4.1778,4.1789,4.1788,4.1841,4.1797,4.1797,4.1797,4.1797,0,4.1463,4.1493,4.1518,4.1541,4.1575,4.1589,4.1621,4.1635,4.1656,4.168,4.1684,4.1706,4.1719,4.1742,4.175,4.1782,4.1788,4.1794,4.1796,4.1794,4.1794,4.1803,4.1801,4.1798,4.1798,4.1798,4.1797,0,4.1492,4.151,4.155,4.1581,4.1589,4.1613,4.1638,4.1659,4.1672,4.1703,4.171,4.1729,4.1757,4.177,4.1803,4.1809,4.1846,4.1845,4.1839,4.184,4.1859,4.1858,4.1921,4.193,4.1879,4.188,4.188,0,4.1516,4.154,4.1575,4.1593,4.1609,4.1637,4.1656,4.167,4.1688,4.1718,4.1736,4.1765,4.1789,4.1833,4.1848,4.1874,4.1875,4.1895,4.1878,4.1876,4.1876,4.1874,4.1877,4.1898,4.1899,4.1899,4.1899,0,4.1558,4.1566,4.1594,4.1626,4.1649,4.1673,4.1697,4.1711,4.1729,4.1749,4.178,4.1799,4.1835,4.1863,4.1891,4.1903,4.1904,4.1905,4.1911,4.1909,4.1905,4.1908,4.1848,4.1903,4.1903,4.1902,4.1902,4.1902,4.1585,4.1608,4.1636,4.1667,4.1688,4.1711,4.1733,4.175,4.1776,4.1809,4.1814,4.1847,4.187,4.1907,4.1921,4.1946,4.1941,4.1949,4.1952,4.1954,4.1955,4.1901,4.195,4.195,4.195,4.195,4.195,0,4.1628,4.1647,4.1676,4.1711,4.1736,4.1737,4.1764,4.1784,4.1814,4.1836,4.1861,4.1896,4.1924,4.1942,4.197,4.1986,4.1987,4.1993,4.1992,4.1995,4.1958,4.195,4.1992,4.1992,4.1992,4.1992,4.1992,4.1992,4.1653,4.1691,4.1703,4.1751,4.1769,4.1804,4.1819,4.184,4.1859,4.1899,4.1923,4.1936,4.1957,4.1987,4.2012,4.2017,4.2027,4.2033,4.2037,4.2002,4.1998,4.1994,4.1987,4.2035,4.2035,4.2073,4.2073,4.2073]}]]